Regional Weather Roundup
Issued by NWS Wakefield, VA

Home | Current Version | Previous Version | Text Only | Print | Product List | Glossary Off
Versions: 1 2 3 4 5 6 7 8 9 10 11 12 13 14 15 16 17 18 19 20 21 22 23 24 25 26 27 28 29 30 31 32 33 34 35 36 37 38 39 40 41 42 43 44 45 46 47 48 49 50

000
ASUS41 KAKQ 020110
RWRAKQ

REGIONAL WEATHER ROUNDUP
NATIONAL WEATHER SERVICE WAKEFIELD VA
900 PM EDT MON SEP 01 2014

Note: "fair" indicates few or no clouds below 12,000 feet with no
significant weather and/or obstructions to visibility. * = Denotes
station may not report precipitation (e.g., rain,snow,etc.),
thunder or fog.

VAZ042-051-052>054-056-020200-
NORTHERN VIRGINIA

CITY           SKY/WX    TMP DP  RH WIND       PRES   REMARKS
WASH NATIONAL  PTCLDY    84  74  71 CALM      29.96S
DULLES         PTCLDY    78  73  84 S3        29.97R
FORT BELVOIR   CLEAR     77  75  96 CALM      29.96S
QUANTICO       CLEAR     80  75  84 NW5       29.96S
FREDERICKSBRG* CLEAR     80  76  88 S3        29.96R
STAFFORD*      CLEAR     76  76 100 CALM      30.00S
WARRENTON      NOT AVBL
CULPEPER*      PTCLDY   N/A N/A N/A CALM      29.97R
MANASSAS*      NOT AVBL
LEESBURG*      PTCLDY    79  77  94 S3        29.98R
WINCHESTER     PTCLDY    81  68  65 CALM      29.98S
$$

VAZ048-049-060>072-079>083-020200-
CENTRAL AND SOUTH CENTRAL VIRGINIA...AND NORTH CENTRAL NORTH CAROLINA

CITY           SKY/WX    TMP DP  RH WIND       PRES   REMARKS
RICHMOND       PTCLDY    83  70  64 S8        29.99S
CHESTERFIELD*  CLEAR     81  64  57 S3        30.01S
PETERSBURG*    CLEAR     77  70  79 S3        30.01S
HANOVER        CLEAR     80  71  74 S5        30.00S
TAPPAHANNOCK*  CLEAR     80  70  71 S3        29.98F
CHARLOTTSVILLE CLEAR     82  69  64 SW6       29.99R
ORANGE*        CLEAR     79  70  73 S5        29.99S
LOUISA*        CLEAR     81  72  74 CALM      29.98S
FARMVILLE*     CLEAR     79  70  73 CALM      30.00R
SOUTH HILL*    PTCLDY    75  75 100 CALM      30.08S
ROANOKE RAPIDS PTCLDY    79  72  78 CALM      30.03S
RALEIGH        PTCLDY    80  72  76 CALM      30.04S
$$

VAZ088>098-020200-
SOUTHEAST VIRGINIA

CITY           SKY/WX    TMP DP  RH WIND       PRES   REMARKS
NORFOLK        MOCLDY    87  67  51 SW12      30.00R
VIRGINIA BEACH CLOUDY    85  71  63 SW8       30.00R
NORFOLK NAVAL  MOCLDY    86  68  54 SW8       30.01R
WEST POINT*    CLEAR     85  70  60 S3        29.99S
NEWPORT NEWS   PTCLDY    86  71  60 SW10      29.99R
LANGLEY AFB    PTCLDY    84  70  63 W9        29.99R
FORT EUSTIS    PTCLDY    83  68  62 VRB3      29.98R
WILLIAMSBURG*  CLEAR     86  73  66 W7        30.00S
FRANKLIN*      PTCLDY    79  70  73 CALM      30.02S
WAKEFIELD      PTCLDY    81  71  71 S3        30.01R
$$

VAZ020-022-025-037-045-020200-
WESTERN AND SOUTHWEST VIRGINIA

CITY           SKY/WX    TMP DP  RH WIND       PRES   REMARKS
STAUNTON*      CLEAR     79  64  61 SW5       30.05R
HOT SPRINGS VA PTCLDY    69  58  68 W12       30.22R
LYNCHBURG      CLEAR     74  69  85 SW3       30.06R
DANVILLE       CLEAR     75  69  81 S3        30.05R
MARTINSVILLE   CLEAR     73  72  96 CALM      30.09S
ROANOKE        PTCLDY    79  65  62 CALM      30.08R
BLACKSBURG     CLEAR     75  68  78 CALM      30.14R
DUBLIN*        PTCLDY    75  67  75 SW6       30.14R
MARION*        PTCLDY   N/A N/A N/A CALM      30.19R
HILLSVILLE*    PTCLDY    73  66  79 S5        30.18R
RICHLANDS*     PTCLDY    78  66  66 S5        30.16R
WISE*          MOCLDY    73  63  68 S5        30.16S
ABINGDON*      PTCLDY    75  70  85 CALM      30.13R
$$

MDZ021>025-VAZ099-100-020200-
SOUTHERN MARYLAND AND THE DELMARVA PENINSULA

CITY           SKY/WX    TMP DP  RH WIND       PRES   REMARKS
PATUXENT RIVER CLEAR     80  73  79 S6        29.96S
BAY BRIDGE APT   N/A     81  77  89 S5        29.96S
LEONARDTOWN    CLEAR     81  72  74 S3        29.99S
DOVER          PTCLDY    80  76  88 SE6       29.95R
GEORGETOWN     CLEAR     81  70  69 S9        29.98R
EASTON         CLEAR     82  75  78 CALM      30.00S
CAMBRIDGE      NOT AVBL
SALISBURY      CLEAR     80  69  69 CALM      29.98R
OCEAN CITY     PTCLDY    81  71  71 W5        29.97S
WALLOPS ISLAND CLEAR     79  72  79 SW8       29.99R
ACCOMACK*      NOT AVBL
$$

NCZ012>017-030>032-020200-
EASTERN NORTH CAROLINA

CITY           SKY/WX    TMP DP  RH WIND       PRES   REMARKS
ELIZABETH CITY MOCLDY    83  76  79 S10       30.02S
AHOSKIE*       MOCLDY    78  75  92 CALM      30.03S
EDENTON*       MOCLDY    83  77  82 S13       30.03R
CURRITUCK*     MOCLDY    84  74  72 S7        30.03S
KILL DEVIL HLS MOCLDY    81  76  84 SW7       30.03S
MANTEO         MOCLDY    82  76  84 S13       30.05R
CAPE HATTERAS  PTCLDY    80  78  94 SW12      30.07R
GOLDSBORO      MOCLDY    83  79  87 S6        30.03R
WASHINGTON     CLOUDY    82  76  83 S6        30.06R
GREENVILLE     MOCLDY    82  79  89 S14       30.06R
NEW BERN       MOCLDY    82  76  81 S6        30.07S
WILMINGTON     MOCLDY    81  75  82 SW6       30.07R
$$

VAZ048-020200-
ELSEWHERE

CITY           SKY/WX    TMP DP  RH WIND       PRES   REMARKS
HARRISBURG PA  PTCLDY    76  73  91 CALM      29.94R
BALTIMORE      PTCLDY    80  73  79 S3        29.95S
ANNAPOLIS      CLEAR     82  73  74 CALM      29.95F
ANDREWS AFB    CLEAR     78  74  90 SE5       29.96F
WILMINGTON DE  CLEAR     80  76  87 SE6       29.96R
PHILADELPHIA   PTCLDY    82  73  74 S6        29.95S
WILDWOOD NJ*   PTCLDY    79  73  83 S6        29.97S
ATLANTIC CITY  CLEAR     77  75  93 S3        29.96S
HENDERSON NC   PTCLDY    79  69  73 CALM      30.04S
GREENSBORO     PTCLDY    83  65  54 CALM      30.07R
ROCKY MOUNT    MOCLDY    79  74  84 CALM      30.04R
FAYETTEVILLE   MOCLDY    86  75  69 S9        30.04R HX  95
CHARLOTTE      PTCLDY    81  68  64 S5        30.08R
$$

VAZ100-020200-
MARINE

STATION/POSITION TIME  TEMP    WIND        PRES    WAVE   SWELL
                       AIR SEA DIR/SP/G            HT/PER HT/PER
                 (UTC) (F)     (DEG/KT/KT) (MB)    (FT/S) (FT/S)
44066 TX TWR #4  0100   75 74  210/ 14/ 14 1015.0R   4/ 6   2/ 9
CAPE MAY NJ      0100   79 80  190/  6/  8 1014.2S
LEWES DE         0100   84 78  250/  6/  9 1014.5S
15NM E FENWICK I 0100   77 76              1015.0R   3/ 8
OCEAN-CITY-INLET 0100   81 78  240/  9/ 11 1014.6R
WACHAPREAGUE VA  0100   80 84  190/  6/  7 1015.4R
THOMAS POINT MD  0100   80 80  180/  8/  8 1015.3F
GOOSES REEF MD   0100   82     210/  6/  6 1015.1S
COVE POINT MD    0100   82     230/ 11/ 12 1014.5F
SOLOMONS ISLAND  0100      81                N/A
BISHOPS HEAD MD  0100   82 81  210/ 10/ 11 1014.6R
PINEY POINT MD   0100          210/  5/  6   N/A
POTOMAC MD       0100   80     210/ 10/ 12 1014.3S
CAMBRIDGE MD     0100   80 80  170/  3/  5 1014.6S
LEWISETTA VA     0100   79 82  200/  7/  7 1014.4F
RAPPAHANNOCK LGT 0100          140/  9/ 10 1015.7S
STINGRAY PT      0100   82     230/  8/  8   N/A
YORK RVR RNG VA  0100   84     240/ 11/ 12 1014.8S
YORKTOWN VA      0100   84 80  240/  7/  9 1015.0S
JAMESTOWN VA     0100   83     260/  8/ 10   N/A
DOMINION TERM VA 0100   84     240/ 11/ 12 1015.8R
KIPTOPEKE VA     0100      83  250/  9/ 12   N/A
CHES BAY BRIDGE  0100   87 80  220/ 15/ 17 1015.0S
CAPE HENRY VA    0100   87     220/  7/ 10 1014.5S
CHESAPEAKE LGHT  0000   81     190/ 20/ 21 1016.0R
WILLOUBY STN VA  0100   84     250/ 12/ 13 1014.5R
S CRANEY ISL VA  0100          220/  5/  9 1015.6R
CAPE HENRY BUOY  0100      80                N/A     3/ 8
1ST LANDING BUOY 0100   86     230/ 12/ 16 1015.2S
CAPE CHARLES BUO 0000      79                N/A     3/ 8   2/ 8
OFFSHORE WE BUOY 0000      78                N/A     3/ 9   2/ 9
64NM E OF VA BCH 0100   80 78  200/ 17/ 21 1015.8F   3/ 9   2/ 9
DUCK PIER NC     0100   82 75  190/ 11/ 17 1016.0S
44056 DUCK FRF   0000                        N/A     2/11   2/11
OREGON INLET NC  0100   82 85  200/ 18/ 21 1017.4R
HATTERAS NC      0100   81 84  220/ 10/ 14 1018.7R
DIAMOND SHLS NC  0100   82     210/ 17/ 19 1018.0R   3/ 8   2/ 8
CAPE LOOKOUT NC  0100   81     220/  8/ 10 1018.4R
$$


USA.gov is the U.S. government's official web portal to all federal, state and local government web resources and services.